sat.trackr.live / text

‹ back to catalog

IRIDIUM 100

NORAD 42956 · 2017-061B

PAYLOAD ACTIVE UNKNOWN

§ Identity

Operator
Country
US
Launch date
2017-10-09
Launch site
AFWTR
Launch vehicle
Mass (kg)
RCS (m²)

Purposes: comms

External: N2YO · Heavens-Above · Gunter

§ Orbital elements

Epoch: 2026-05-25T03:23:14.695584Z

Period
100.40 min
Inclination
86.3988°
Eccentricity
0.0002185
Mean motion
14.34217794 rev/d
Perigee alt
776.1 km
Apogee alt
779.2 km
Semi-major
7,155.8 km
B*
3.0197e-6
RAAN
34.8201°
Arg perigee
84.1723°
Mean anomaly
275.9722°
Rev number
45,147

§ Raw data

IRIDIUM 1001 42956U 17061B   26145.14114231  .00000028  00000+0  30197-5 0  99902 42956  86.3988  34.8201 0002185  84.1723 275.9722 14.34217794451476

JSON: /api/v1/satellites/42956 · /tle

For live sub-satellite position, see the globe view (requires WebGL).

§ Visibility from observer

Set your observer location to see the next 7 days of passes ≥ 10°. The values pass through the URL so the page stays shareable.

No JS? Fill the form by hand. The geolocation button needs JavaScript.